IBE109 KLAX-LEMD

Flight info

Callsign IBE109
Flight time N/A
Altitude 37000
Route DOTSS2 CLEEE DCT EED DCT RSK DCT ALS DCT LAA DCT LMN DCT JOT/N0493F390 DCT ECK DCT SYR DCT KANNI/M084F390 N27A CARAC DCT JEBBY DCT 43N050W 43N040W/M084F410 43N030W 44N020W DCT MUDOS/N0486F410 DCT STG DCT DESAT/N0491F400 N733 ZMR
Aircraft A359/H-SDE2E3GHIJ3J4J5LM1ORWXY/LB1D1

Departure

Time 2026-05-08 01:43
Airport Los Angeles International Airport (KLAX)

Arrival

Time N/A
Airport Adolfo Suárez Madrid–Barajas Airport (LEMD)
Time Latitude Longitude Altitude Speed Heading
2026-05-08 01:08 33.94021 -118.41073 99 ft 0 kts 83°
2026-05-08 01:25 33.94019 -118.41093 98 ft 4 kts 83°
2026-05-08 01:26 33.94016 -118.41124 97 ft 4 kts 83°
2026-05-08 01:26 33.94013 -118.41157 97 ft 4 kts 84°
2026-05-08 01:26 33.94012 -118.41182 96 ft 4 kts 129°
2026-05-08 01:26 33.94031 -118.41190 98 ft 4 kts 182°
2026-05-08 01:27 33.94057 -118.41189 98 ft 2 kts 173°
2026-05-08 01:27 33.94062 -118.41190 98 ft 0 kts 173°
2026-05-08 01:31 33.94032 -118.41186 99 ft 11 kts 173°
2026-05-08 01:32 33.93933 -118.41171 101 ft 15 kts 173°
2026-05-08 01:32 33.93835 -118.41157 101 ft 14 kts 173°
2026-05-08 01:32 33.93780 -118.41147 102 ft 0 kts 166°
2026-05-08 01:33 33.93778 -118.41146 101 ft 0 kts 166°
2026-05-08 01:35 33.93771 -118.41135 102 ft 7 kts 126°
2026-05-08 01:35 33.93773 -118.41041 100 ft 12 kts 84°
2026-05-08 01:35 33.93783 -118.40933 100 ft 13 kts 84°
2026-05-08 01:36 33.93791 -118.40828 100 ft 13 kts 81°
2026-05-08 01:36 33.93805 -118.40720 101 ft 14 kts 83°
2026-05-08 01:36 33.93819 -118.40589 103 ft 20 kts 83°
2026-05-08 01:36 33.93831 -118.40470 102 ft 27 kts 83°
2026-05-08 01:37 33.93853 -118.40254 105 ft 31 kts 83°
2026-05-08 01:37 33.93878 -118.39998 102 ft 31 kts 83°
2026-05-08 01:38 33.93903 -118.39740 102 ft 31 kts 83°
2026-05-08 01:38 33.93932 -118.39480 102 ft 31 kts 83°
2026-05-08 01:38 33.93958 -118.39217 100 ft 32 kts 84°
2026-05-08 01:38 33.93985 -118.38956 103 ft 31 kts 83°
2026-05-08 01:39 33.94010 -118.38704 103 ft 27 kts 83°
2026-05-08 01:39 33.94034 -118.38480 103 ft 27 kts 83°
2026-05-08 01:39 33.94045 -118.38377 102 ft 4 kts 87°
2026-05-08 01:39 33.94043 -118.38365 102 ft 0 kts 101°
2026-05-08 01:40 33.94032 -118.38350 104 ft 7 kts 133°
2026-05-08 01:41 33.93977 -118.38334 104 ft 6 kts 192°
2026-05-08 01:41 33.93951 -118.38370 106 ft 5 kts 248°
2026-05-08 01:41 33.93945 -118.38411 105 ft 0 kts 262°
2026-05-08 01:42 33.93941 -118.38442 105 ft 21 kts 262°
2026-05-08 01:42 33.93896 -118.38881 104 ft 82 kts 263°
2026-05-08 01:42 33.93804 -118.39782 105 ft 133 kts 263°
2026-05-08 01:43 33.93678 -118.41041 260 ft 161 kts 260°
2026-05-08 01:43 33.93531 -118.42353 810 ft 162 kts 261°
2026-05-08 01:43 33.93382 -118.43677 1528 ft 155 kts 262°
2026-05-08 01:43 33.93221 -118.45007 1889 ft 168 kts 262°
2026-05-08 01:44 33.92921 -118.46419 2232 ft 181 kts 247°
2026-05-08 01:44 33.92133 -118.47660 2529 ft 196 kts 227°
2026-05-08 01:44 33.91117 -118.48864 2816 ft 212 kts 226°
2026-05-08 01:44 33.90029 -118.50184 3029 ft 233 kts 227°
2026-05-08 01:45 33.88848 -118.51615 3337 ft 249 kts 227°
2026-05-08 01:45 33.87585 -118.53124 3694 ft 261 kts 227°
2026-05-08 01:45 33.86262 -118.54627 4353 ft 262 kts 223°
2026-05-08 01:45 33.84672 -118.55698 5034 ft 267 kts 199°
2026-05-08 01:46 33.82813 -118.55769 5625 ft 275 kts 173°
2026-05-08 01:46 33.80924 -118.55209 6120 ft 283 kts 167°
2026-05-08 01:46 33.79004 -118.54587 6632 ft 288 kts 167°
2026-05-08 01:46 33.77043 -118.53992 7168 ft 293 kts 168°
2026-05-08 01:47 33.75723 -118.53635 7602 ft 293 kts 169°
2026-05-08 01:47 33.73064 -118.52951 8469 ft 297 kts 169°
2026-05-08 01:47 33.71083 -118.52240 9142 ft 299 kts 154°
2026-05-08 01:48 33.68564 -118.48452 10353 ft 302 kts 108°
2026-05-08 01:48 33.67847 -118.46015 10632 ft 318 kts 107°
2026-05-08 01:48 33.67358 -118.44285 10838 ft 329 kts 107°
2026-05-08 01:48 33.66600 -118.41633 11104 ft 344 kts 107°
2026-05-08 01:49 33.65797 -118.38872 11382 ft 357 kts 108°
2026-05-08 01:49 33.64963 -118.36003 11649 ft 370 kts 107°
2026-05-08 01:49 33.64467 -118.32940 11908 ft 379 kts 92°
2026-05-08 01:49 33.64415 -118.29759 12381 ft 382 kts 88°
2026-05-08 01:50 33.64432 -118.26567 12929 ft 384 kts 88°
2026-05-08 01:50 33.64448 -118.23343 13441 ft 387 kts 89°
2026-05-08 01:50 33.64458 -118.20103 13968 ft 389 kts 89°
2026-05-08 01:50 33.64463 -118.16848 14415 ft 392 kts 89°
2026-05-08 01:51 33.64465 -118.13554 14830 ft 395 kts 89°
2026-05-08 01:51 33.64465 -118.10260 15293 ft 397 kts 89°
2026-05-08 01:51 33.64464 -118.06932 15742 ft 400 kts 89°
2026-05-08 01:51 33.64461 -118.03580 16208 ft 402 kts 89°
2026-05-08 01:52 33.64457 -118.00213 16675 ft 405 kts 89°
2026-05-08 01:52 33.64452 -117.96779 17111 ft 408 kts 89°
2026-05-08 01:52 33.64446 -117.93362 17567 ft 411 kts 89°
2026-05-08 01:52 33.64439 -117.89931 18067 ft 413 kts 89°
2026-05-08 01:53 33.64431 -117.86473 18496 ft 416 kts 89°
2026-05-08 01:53 33.64423 -117.82989 18908 ft 419 kts 89°
2026-05-08 01:53 33.64536 -117.79493 19325 ft 420 kts 82°
2026-05-08 01:53 33.65064 -117.76046 19764 ft 421 kts 76°
2026-05-08 01:54 33.65725 -117.72617 20198 ft 423 kts 75°
2026-05-08 01:54 33.66384 -117.69249 20603 ft 426 kts 75°
2026-05-08 01:54 33.67069 -117.65724 21048 ft 428 kts 75°
2026-05-08 01:54 33.67748 -117.62210 21463 ft 431 kts 75°
2026-05-08 01:55 33.68429 -117.58673 21865 ft 434 kts 75°
2026-05-08 01:55 33.69099 -117.55181 22266 ft 437 kts 75°
2026-05-08 01:55 33.69781 -117.51613 22671 ft 439 kts 75°
2026-05-08 01:55 33.70466 -117.48027 23085 ft 442 kts 75°
2026-05-08 01:56 33.71154 -117.44414 23527 ft 445 kts 75°
2026-05-08 01:56 33.71845 -117.40782 23901 ft 448 kts 75°
2026-05-08 01:56 33.72540 -117.37128 24281 ft 451 kts 75°
2026-05-08 01:56 33.73239 -117.33442 24657 ft 453 kts 75°
2026-05-08 01:57 33.73940 -117.29736 25063 ft 455 kts 75°
2026-05-08 01:57 33.74633 -117.26022 25458 ft 458 kts 76°
2026-05-08 01:57 33.75059 -117.22216 25846 ft 462 kts 85°
2026-05-08 01:57 33.75071 -117.18342 26217 ft 466 kts 89°
2026-05-08 01:58 33.74988 -117.14438 26647 ft 468 kts 89°
2026-05-08 01:58 33.74898 -117.10518 27016 ft 471 kts 89°
2026-05-08 01:58 33.74811 -117.06578 27357 ft 474 kts 89°
2026-05-08 01:58 33.74724 -117.02612 27731 ft 476 kts 89°
2026-05-08 01:59 33.74638 -116.98629 28091 ft 478 kts 89°
2026-05-08 01:59 33.74551 -116.94628 28439 ft 481 kts 89°
2026-05-08 01:59 33.74462 -116.90602 28770 ft 483 kts 89°
2026-05-08 01:59 33.74371 -116.86550 29105 ft 485 kts 89°
2026-05-08 02:00 33.74279 -116.82507 29491 ft 485 kts 89°
2026-05-08 02:00 33.74186 -116.78450 29820 ft 487 kts 89°
2026-05-08 02:00 33.74091 -116.74364 30026 ft 490 kts 89°
2026-05-08 02:00 33.73994 -116.70268 30321 ft 490 kts 89°
2026-05-08 02:01 33.73897 -116.66191 30662 ft 489 kts 89°
2026-05-08 02:01 33.73801 -116.62102 30950 ft 488 kts 89°
2026-05-08 02:01 33.73700 -116.58028 31292 ft 488 kts 89°
2026-05-08 02:01 33.73597 -116.53956 31650 ft 488 kts 89°
2026-05-08 02:02 33.73494 -116.49887 31959 ft 487 kts 89°
2026-05-08 02:02 33.73390 -116.45832 32296 ft 486 kts 89°
2026-05-08 02:02 33.73284 -116.41776 32615 ft 486 kts 89°
2026-05-08 02:02 33.73177 -116.37714 32919 ft 485 kts 89°
2026-05-08 02:03 33.73070 -116.33679 33221 ft 484 kts 89°
2026-05-08 02:03 33.72962 -116.29635 33532 ft 484 kts 89°
2026-05-08 02:03 33.72852 -116.25600 33829 ft 483 kts 89°
2026-05-08 02:03 33.72741 -116.21579 34110 ft 481 kts 89°
2026-05-08 02:04 33.72632 -116.17575 34351 ft 480 kts 89°
2026-05-08 02:04 33.72708 -116.13604 34539 ft 478 kts 82°
2026-05-08 02:04 33.73256 -116.09665 34728 ft 474 kts 73°